Location: ??? ????
(38.0580°N, 23.1536°E)
Time: 06:15:23
(UTC+00:00)

Cosmos 2322 Rocket - Pass Details

Date: 13 December 2025
Orbit: 831 x 850 km, 71.0° (Epoch: 20 January)

Event Time Altitude Azimuth Distance (km) Brightness Sun altitude
Rises 18:35:13 0° 221° (SW) 3,390 5.8 -39.8°
Reaches altitude 10° 18:37:48 10° 229° (SW) 2,461 5.0 -40.4°
Enters shadow 18:39:22 18° 237° (WSW) 1,938 4.5 -40.7°
